Rutherfordton, NC

7:36 PM EDT on June 23, 2017 (GMT -0400)
Rutherford County-Marchman

Weather History for KFQD - January, 2014

Change the Weather History Date:

Wednesday, January 1, 2014

  Actual Average (KAVL) Record (KAVL)
Temperature  
Mean Temperature 37 °F -  
Max Temperature 47 °F 47 °F 76 °F (1952)
Min Temperature 27 °F 29 °F -1 °F (1928)
Degree Days  
Heating Degree Days 28    
Moisture  
Dew Point 25 °F    
Average Humidity 65    
Maximum Humidity 88    
Minimum Humidity 38    
Precipitation  
Precipitation 0.00 in - - ()
Sea Level Pressure  
Sea Level Pressure 30.29 in    
Wind  
Wind Speed 2 mph (SSW)    
Max Wind Speed 10 mph    
Max Gust Speed -    
Visibility 10 miles    
Events      
Averages and records for this station are not official NWS values.
T = Trace of Precipitation, MM = Missing Value Source: NWS Daily Summary

Daily Weather History Graph

Daily Weather History Graph

Search for Another Location

Airport or City:

Trip Planner

Search our weather history database for the weather conditions in past years. The results will help you decide how hot, cold, wet, or windy it might be!

Date:

Astronomy

Jan. 01, 2014 Rise Set
Actual Time 7:36 AM EST 5:26 PM EST
Civil Twilight 7:08 AM EST 5:54 PM EST
Nautical Twilight 6:36 AM EST 6:25 PM EST
Astronomical Twilight 6:05 AM EST 6:56 PM EST
Moon 7:28 AM EST (1/1) 6:06 PM EST (1/1)
Length of Visible Light 10h 45m
Length of Day
9h 49m
New Moon, 0% of the Moon is Illuminated
Jan 1
New Moon
Jan 7
First Quarter
Jan 15
Full
Jan 24
Last Quarter
Jan 30
New

Hourly Weather History & Observations

Time (EST) Temp. Windchill Dew Point Humidity Pressure Visibility Wind Dir Wind Speed Gust Speed Precip Events Conditions
12:15 AM 31.1 °F 26.4 °F 22.1 °F 69% 30.36 in 10.0 mi WNW 4.6 mph - N/A   Clear
12:35 AM 30.9 °F 27.5 °F 21.9 °F 69% 30.35 in 10.0 mi West 3.5 mph - N/A   Clear
12:55 AM 30.9 °F 25.2 °F 21.7 °F 69% 30.35 in 10.0 mi WNW 5.8 mph - N/A   Clear
1:15 AM 31.1 °F 25.4 °F 21.2 °F 67% 30.34 in 10.0 mi North 5.8 mph - N/A   Clear
1:35 AM 30.4 °F - 21.7 °F 70% 30.34 in 10.0 mi Calm Calm - N/A   Clear
1:55 AM 30.2 °F - 22.1 °F 72% 30.34 in 10.0 mi Calm Calm - N/A   Clear
2:15 AM 28.9 °F - 23.0 °F 78% 30.35 in 10.0 mi Calm Calm - N/A   Clear
2:35 AM 28.6 °F 24.8 °F 23.4 °F 81% 30.35 in 10.0 mi West 3.5 mph - N/A   Clear
2:55 AM 28.9 °F - 22.6 °F 77% 30.35 in 10.0 mi Calm Calm - N/A   Clear
3:15 AM 29.8 °F 26.3 °F 22.3 °F 73% 30.35 in 10.0 mi NW 3.5 mph - N/A   Clear
3:35 AM 30.0 °F 26.5 °F 22.6 °F 74% 30.35 in 10.0 mi NNW 3.5 mph - N/A   Clear
3:55 AM 30.0 °F - 23.0 °F 75% 30.35 in 10.0 mi Calm Calm - N/A   Clear
4:15 AM 30.2 °F - 22.3 °F 72% 30.34 in 10.0 mi Calm Calm - N/A   Clear
4:35 AM 29.7 °F - 23.4 °F 77% 30.34 in 10.0 mi Calm Calm - N/A   Clear
4:55 AM 28.6 °F - 23.5 °F 81% 30.34 in 10.0 mi Calm Calm - N/A   Clear
5:15 AM 29.8 °F 26.3 °F 22.6 °F 75% 30.33 in 10.0 mi NNE 3.5 mph - N/A   Clear
5:35 AM 30.4 °F - 21.4 °F 69% 30.33 in 10.0 mi Calm Calm - N/A   Clear
5:55 AM 28.4 °F - 23.5 °F 82% 30.34 in 10.0 mi Calm Calm - N/A   Clear
6:15 AM 28.4 °F - 23.7 °F 83% 30.35 in 10.0 mi Calm Calm - N/A   Clear
6:35 AM 27.9 °F - 23.9 °F 85% 30.34 in 10.0 mi Calm Calm - N/A   Clear
6:55 AM 27.7 °F - 22.8 °F 82% 30.34 in 10.0 mi Calm Calm - N/A   Clear
7:15 AM 27.5 °F - 23.7 °F 86% 30.35 in 10.0 mi Calm Calm - N/A   Clear
7:35 AM 27.3 °F 23.4 °F 24.3 °F 88% 30.35 in 10.0 mi WNW 3.5 mph - N/A   Clear
7:55 AM 27.1 °F - 23.9 °F 88% 30.35 in 10.0 mi Calm Calm - N/A   Clear
8:15 AM 27.9 °F - 24.1 °F 86% 30.36 in 10.0 mi Calm Calm - N/A   Clear
8:35 AM 29.7 °F - 23.5 °F 78% 30.36 in 10.0 mi Calm Calm - N/A   Clear
8:55 AM 30.2 °F - 25.3 °F 82% 30.37 in 10.0 mi Calm Calm - N/A   Clear
9:15 AM 32.5 °F - 25.0 °F 74% 30.37 in 10.0 mi Calm Calm - N/A   Clear
9:35 AM 36.0 °F - 23.2 °F 60% 30.38 in 10.0 mi Calm Calm - N/A   Clear
9:55 AM 37.4 °F - 23.0 °F 56% 30.38 in 10.0 mi Calm Calm - N/A   Clear
10:15 AM 39.2 °F - 24.6 °F 56% 30.38 in 10.0 mi Calm Calm - N/A   Clear
10:35 AM 40.3 °F - 25.5 °F 56% 30.38 in 10.0 mi Calm Calm - N/A   Clear
10:55 AM 41.2 °F - 22.5 °F 47% 30.37 in 10.0 mi Calm Calm - N/A   Clear
11:15 AM 41.9 °F 39.0 °F 21.9 °F 45% 30.36 in 10.0 mi South 4.6 mph - N/A   Clear
11:35 AM 42.8 °F 40.1 °F 22.8 °F 45% 30.35 in 10.0 mi SSE 4.6 mph - N/A   Clear
11:55 AM 43.9 °F 41.3 °F 23.7 °F 45% 30.34 in 10.0 mi South 4.6 mph - N/A   Clear
12:15 PM 44.4 °F - 23.4 °F 43% 30.32 in 10.0 mi Calm Calm - N/A   Clear
12:35 PM 45.7 °F 43.4 °F 21.6 °F 38% 30.30 in 10.0 mi South 4.6 mph - N/A   Clear
12:55 PM 45.7 °F 43.4 °F 21.9 °F 39% 30.29 in 10.0 mi SSE 4.6 mph - N/A   Clear
1:15 PM 46.6 °F - 22.8 °F 39% 30.29 in 10.0 mi Calm Calm - N/A   Clear
1:35 PM 47.3 °F - 25.0 °F 42% 30.28 in 10.0 mi South 6.9 mph - N/A   Clear
1:55 PM 47.1 °F - 27.0 °F 46% 30.27 in 10.0 mi SW 5.8 mph - N/A   Clear
2:15 PM 47.1 °F - 28.2 °F 48% 30.26 in 10.0 mi South 5.8 mph - N/A   Clear
2:35 PM 46.8 °F - 30.0 °F 52% 30.25 in 10.0 mi SSW 6.9 mph - N/A   Clear
2:55 PM 47.1 °F - 29.3 °F 50% 30.24 in 10.0 mi South 8.1 mph - N/A   Clear
3:15 PM 46.9 °F - 29.3 °F 50% 30.24 in 10.0 mi South 6.9 mph - N/A   Clear
3:35 PM 47.1 °F - 29.1 °F 50% 30.23 in 10.0 mi South 10.4 mph - N/A   Clear
3:55 PM 46.8 °F - 28.9 °F 50% 30.24 in 10.0 mi SSW 5.8 mph - N/A   Clear
4:15 PM 46.6 °F - 28.4 °F 49% 30.24 in 10.0 mi South 5.8 mph - N/A   Clear
4:35 PM 45.9 °F 43.6 °F 28.2 °F 50% 30.23 in 10.0 mi South 4.6 mph - N/A   Clear
4:55 PM 45.0 °F 42.6 °F 27.5 °F 50% 30.22 in 10.0 mi South 4.6 mph - N/A   Clear
5:15 PM 43.7 °F 41.1 °F 28.0 °F 54% 30.22 in 10.0 mi South 4.6 mph - N/A   Clear
5:35 PM 42.4 °F - 28.0 °F 57% 30.23 in 10.0 mi Calm Calm - N/A   Clear
5:55 PM 43.2 °F - 28.2 °F 56% 30.22 in 10.0 mi Calm Calm - N/A   Clear
6:15 PM 43.2 °F 41.5 °F 28.0 °F 55% 30.23 in 10.0 mi SSE 3.5 mph - N/A   Clear
6:35 PM 42.3 °F 40.5 °F 28.0 °F 57% 30.22 in 10.0 mi SE 3.5 mph - N/A   Clear
6:55 PM 42.3 °F 40.5 °F 27.5 °F 56% 30.22 in 10.0 mi SE 3.5 mph - N/A   Clear
7:15 PM 41.7 °F - 28.0 °F 58% 30.22 in 10.0 mi Calm Calm - N/A   Clear
7:35 PM 40.1 °F 38.0 °F 28.4 °F 63% 30.22 in 10.0 mi SE 3.5 mph - N/A   Clear
7:55 PM 39.9 °F - 28.2 °F 63% 30.21 in 10.0 mi Calm Calm - N/A   Clear
8:15 PM 39.4 °F - 28.4 °F 65% 30.21 in 10.0 mi Calm Calm - N/A   Clear
8:35 PM 38.5 °F - 28.4 °F 67% 30.19 in 10.0 mi Calm Calm - N/A   Clear
8:55 PM 36.1 °F - 28.9 °F 75% 30.19 in 10.0 mi Calm Calm - N/A   Clear
9:15 PM 36.3 °F - 28.8 °F 74% 30.19 in 10.0 mi Calm Calm - N/A   Clear
9:35 PM 36.9 °F - 29.1 °F 74% 30.18 in 10.0 mi Calm Calm - N/A   Clear
9:55 PM 36.3 °F - 28.9 °F 75% 30.18 in 10.0 mi Calm Calm - N/A   Clear
10:15 PM 34.2 °F - 29.3 °F 82% 30.18 in 10.0 mi Calm Calm - N/A   Clear
10:35 PM 35.4 °F - 29.1 °F 78% 30.17 in 10.0 mi Calm Calm - N/A   Clear
10:55 PM 33.8 °F - 29.3 °F 84% 30.17 in 10.0 mi Calm Calm - N/A   Clear
11:15 PM 36.5 °F - 28.9 °F 74% 30.15 in 10.0 mi Calm Calm - N/A   Clear
11:35 PM 34.9 °F - 28.9 °F 79% 30.14 in 10.0 mi Calm Calm - N/A   Clear
11:55 PM 33.3 °F - 29.3 °F 85% 30.14 in 10.0 mi Calm Calm - N/A   Clear